| time (UTC) | temp C | wind direction | speed KPH | gust KPH | rain 1hr cm | rain 24hr cm | rain mn cm | humidity % | barometer mb |
| 20260905145410 | 28 | 290 | 0.0 | 1.6 | 0.00 | 0.00 | 0.00 | 83 | 1016.0 |
| 20260905144909 | 28 | 295 | 0.0 | 1.6 | 0.00 | 0.00 | 0.00 | 84 | 1015.8 |
| 20260905144359 | 28 | 286 | 1.6 | 1.6 | 0.00 | 0.00 | 0.00 | 83 | 1015.5 |
| 20260905143857 | 27 | 310 | 0.0 | 1.6 | 0.00 | 0.00 | 0.00 | 87 | 1015.7 |
| 20260905143352 | 27 | 316 | 3.2 | 3.2 | 0.00 | 0.00 | 0.00 | 87 | 1015.7 |
| 20260905142852 | 27 | 297 | 0.0 | 0.0 | 0.00 | 0.00 | 0.00 | 88 | 1015.9 |
| 20260905142350 | 27 | 296 | 0.0 | 1.6 | 0.00 | 0.00 | 0.00 | 89 | 1015.8 |
| 20260905141847 | 27 | 273 | 0.0 | 0.0 | 0.00 | 0.00 | 0.00 | 89 | 1015.7 |
| 20260905141342 | 27 | 272 | 0.0 | 1.6 | 0.00 | 0.00 | 0.00 | 89 | 1015.7 |
| 20260905140837 | 26 | 269 | 1.6 | 3.2 | 0.00 | 0.00 | 0.00 | 90 | 1015.4 |
| 20260905140332 | 26 | 269 | 1.6 | 1.6 | 0.00 | 0.00 | 0.00 | 92 | 1015.5 |
| 20260905135830 | 26 | 272 | 0.0 | 3.2 | 0.00 | 0.00 | 0.00 | 93 | 1015.6 |
| 20260905135326 | 26 | 274 | 0.0 | 1.6 | 0.00 | 0.00 | 0.00 | 92 | 1015.4 |
| 20260905134821 | 26 | 277 | 0.0 | 1.6 | 0.00 | 0.00 | 0.00 | 91 | 1015.4 |
| 20260905134314 | 26 | 281 | 0.0 | 1.6 | 0.00 | 0.00 | 0.00 | 93 | 1015.6 |
| 20260905133809 | 26 | 274 | 1.6 | 1.6 | 0.00 | 0.00 | 0.00 | 93 | 1015.3 |
| 20260905133305 | 26 | 279 | 0.0 | 1.6 | 0.00 | 0.00 | 0.00 | 93 | 1015.2 |
| 20260905132803 | 26 | 258 | 1.6 | 1.6 | 0.00 | 0.00 | 0.00 | 94 | 1015.2 |
| 20260905132259 | 26 | 275 | 1.6 | 3.2 | 0.00 | 0.00 | 0.00 | 94 | 1015.3 |
| 20260905131754 | 25 | 271 | 1.6 | 1.6 | 0.00 | 0.00 | 0.00 | 93 | 1015.3 |
| 20260905131249 | 26 | 272 | 1.6 | 1.6 | 0.00 | 0.00 | 0.00 | 91 | 1015.0 |
| 20260905130744 | 26 | 274 | 0.0 | 1.6 | 0.00 | 0.00 | 0.00 | 92 | 1015.1 |
| 20260905130243 | 25 | 216 | 3.2 | 3.2 | 0.00 | 0.00 | 0.00 | 93 | 1015.1 |
| 20260905125738 | 25 | 251 | 3.2 | 3.2 | 0.00 | 0.00 | 0.00 | 94 | 1015.2 |
| 20260905125233 | 25 | 278 | 0.0 | 1.6 | 0.00 | 0.00 | 0.00 | 95 | 1015.1 |
| 20260905124730 | 23 | 279 | 0.0 | 0.0 | 0.00 | 0.00 | 0.00 | 97 | 1014.9 |
| 20260905124226 | 23 | 279 | 0.0 | 0.0 | 0.00 | 0.00 | 0.00 | 98 | 1015.2 |
| 20260905123725 | 23 | 228 | 1.6 | 3.2 | 0.00 | 0.00 | 0.00 | 99 | 1014.9 |
| 20260905123223 | 23 | 262 | 0.0 | 0.0 | 0.00 | 0.00 | 0.00 | 99 | 1015.1 |
| 20260905122722 | 22 | 262 | 0.0 | 0.0 | 0.00 | 0.00 | 0.00 | 99 | 1015.0 |
| 20260905122217 | 22 | 262 | 0.0 | 0.0 | 0.00 | 0.00 | 0.00 | 99 | 1014.8 |
| 20260905121712 | 22 | 262 | 0.0 | 0.0 | 0.00 | 0.00 | 0.00 | 99 | 1014.8 |
| 20260905121209 | 22 | 262 | 0.0 | 0.0 | 0.00 | 0.00 | 0.00 | 99 | 1014.8 |
| 20260905120707 | 22 | 262 | 0.0 | 0.0 | 0.00 | 0.00 | 0.00 | 99 | 1014.8 |
| 20260905120201 | 22 | 263 | 0.0 | 0.0 | 0.00 | 0.00 | 0.00 | 99 | 1014.6 |
| 20260905115701 | 22 | 262 | 0.0 | 0.0 | 0.00 | 0.00 | 0.00 | 99 | 1014.4 |
| 20260905115151 | 22 | 262 | 0.0 | 0.0 | 0.00 | 0.00 | 0.00 | 99 | 1014.4 |
| 20260905114650 | 22 | 262 | 0.0 | 0.0 | 0.00 | 0.00 | 0.00 | 99 | 1014.3 |
| 20260905114148 | 22 | 262 | 0.0 | 0.0 | 0.00 | 0.00 | 0.00 | 99 | 1014.2 |
| 20260905113643 | 22 | 262 | 0.0 | 0.0 | 0.00 | 0.00 | 0.00 | 99 | 1014.5 |
| 20260905113138 | 22 | 243 | 3.2 | 3.2 | 0.00 | 0.00 | 0.00 | 99 | 1014.2 |
| 20260905112633 | 22 | 261 | 1.6 | 1.6 | 0.00 | 0.00 | 0.00 | 99 | 1014.3 |
| 20260905112130 | 22 | 261 | 0.0 | 0.0 | 0.00 | 0.00 | 0.00 | 99 | 1014.4 |
| 20260905111629 | 22 | 261 | 0.0 | 0.0 | 0.00 | 0.00 | 0.00 | 99 | 1014.5 |
| 20260905111128 | 22 | 261 | 0.0 | 1.6 | 0.00 | 0.00 | 0.00 | 99 | 1014.5 |
| 20260905110628 | 22 | 261 | 0.0 | 0.0 | 0.00 | 0.00 | 0.00 | 99 | 1014.4 |
| 20260905110123 | 22 | 261 | 0.0 | 0.0 | 0.00 | 0.00 | 0.00 | 99 | 1014.3 |
| 20260905105618 | 22 | 261 | 0.0 | 0.0 | 0.00 | 0.00 | 0.00 | 99 | 1014.4 |
| 20260905105117 | 22 | 261 | 0.0 | 0.0 | 0.00 | 0.00 | 0.00 | 99 | 1014.2 |
| 20260905104612 | 22 | 261 | 0.0 | 0.0 | 0.00 | 0.00 | 0.00 | 99 | 1014.2 |
| 20260905104107 | 23 | 261 | 0.0 | 0.0 | 0.00 | 0.00 | 0.00 | 99 | 1014.3 |
| 20260905103603 | 23 | 261 | 0.0 | 0.0 | 0.00 | 0.00 | 0.00 | 99 | 1014.3 |
| 20260905103058 | 23 | 261 | 0.0 | 0.0 | 0.00 | 0.00 | 0.00 | 98 | 1014.2 |
| 20260905102548 | 23 | 261 | 0.0 | 0.0 | 0.00 | 0.00 | 0.00 | 98 | 1014.1 |
| 20260905102045 | 23 | 261 | 0.0 | 0.0 | 0.00 | 0.00 | 0.00 | 98 | 1014.1 |
| 20260905101543 | 23 | 261 | 0.0 | 0.0 | 0.00 | 0.00 | 0.00 | 98 | 1014.0 |
| 20260905101041 | 23 | 261 | 0.0 | 1.6 | 0.00 | 0.00 | 0.00 | 98 | 1014.0 |
| 20260905100538 | 23 | 261 | 0.0 | 0.0 | 0.00 | 0.00 | 0.00 | 98 | 1013.6 |
| 20260905100037 | 23 | 261 | 0.0 | 0.0 | 0.00 | 0.00 | 0.00 | 98 | 1013.7 |
| 20260905095531 | 23 | 261 | 0.0 | 0.0 | 0.00 | 0.00 | 0.00 | 97 | 1014.0 |
| 20260905095026 | 23 | 261 | 0.0 | 0.0 | 0.00 | 0.00 | 0.00 | 97 | 1014.0 |
| 20260905094516 | 23 | 261 | 0.0 | 0.0 | 0.00 | 0.00 | 0.00 | 97 | 1013.6 |
| 20260905094015 | 23 | 261 | 1.6 | 1.6 | 0.00 | 0.00 | 0.00 | 97 | 1013.9 |
| 20260905093510 | 23 | 261 | 1.6 | 1.6 | 0.00 | 0.00 | 0.00 | 96 | 1013.7 |
| 20260905093007 | 24 | 261 | 0.0 | 1.6 | 0.00 | 0.00 | 0.00 | 95 | 1013.9 |
| 20260905092506 | 24 | 261 | 0.0 | 0.0 | 0.00 | 0.00 | 0.00 | 95 | 1013.7 |
| 20260905092002 | 24 | 261 | 1.6 | 1.6 | 0.00 | 0.00 | 0.00 | 95 | 1013.9 |
| 20260905091501 | 24 | 261 | 1.6 | 3.2 | 0.00 | 0.00 | 0.00 | 95 | 1013.9 |
| 20260905090956 | 24 | 262 | 1.6 | 1.6 | 0.00 | 0.00 | 0.00 | 94 | 1013.9 |
| 20260905090451 | 24 | 262 | 1.6 | 3.2 | 0.00 | 0.00 | 0.00 | 95 | 1013.7 |
| 20260905085950 | 24 | 262 | 0.0 | 1.6 | 0.00 | 0.00 | 0.00 | 95 | 1014.0 |
| 20260905085450 | 24 | 262 | 0.0 | 1.6 | 0.00 | 0.00 | 0.00 | 96 | 1014.1 |
| 20260905084946 | 24 | 262 | 0.0 | 0.0 | 0.00 | 0.00 | 0.00 | 96 | 1014.2 |
| 20260905084445 | 24 | 262 | 0.0 | 1.6 | 0.00 | 0.00 | 0.00 | 96 | 1014.1 |
| 20260905083939 | 24 | 262 | 0.0 | 1.6 | 0.00 | 0.00 | 0.00 | 96 | 1014.3 |
| 20260905083436 | 24 | 262 | 1.6 | 1.6 | 0.00 | 0.00 | 0.00 | 96 | 1014.2 |
| 20260905082931 | 24 | 262 | 0.0 | 0.0 | 0.00 | 0.00 | 0.00 | 96 | 1014.1 |
| 20260905082427 | 24 | 262 | 0.0 | 0.0 | 0.00 | 0.00 | 0.00 | 96 | 1014.2 |
| 20260905081922 | 24 | 262 | 0.0 | 0.0 | 0.00 | 0.00 | 0.00 | 96 | 1014.2 |
| 20260905081417 | 24 | 262 | 1.6 | 1.6 | 0.00 | 0.00 | 0.00 | 95 | 1014.2 |
| 20260905080915 | 24 | 262 | 1.6 | 1.6 | 0.00 | 0.00 | 0.00 | 95 | 1014.3 |
| 20260905080410 | 24 | 262 | 1.6 | 1.6 | 0.00 | 0.00 | 0.00 | 95 | 1014.4 |
| 20260905075909 | 24 | 262 | 1.6 | 3.2 | 0.00 | 0.00 | 0.00 | 96 | 1014.3 |
| 20260905075409 | 24 | 262 | 1.6 | 1.6 | 0.00 | 0.00 | 0.00 | 96 | 1014.2 |
| 20260905074908 | 24 | 262 | 0.0 | 0.0 | 0.00 | 0.00 | 0.00 | 97 | 1014.5 |
| 20260905074358 | 24 | 262 | 0.0 | 0.0 | 0.00 | 0.00 | 0.00 | 97 | 1014.3 |
| 20260905073854 | 24 | 262 | 0.0 | 0.0 | 0.00 | 0.00 | 0.00 | 96 | 1014.3 |
| 20260905073349 | 24 | 262 | 0.0 | 0.0 | 0.00 | 0.00 | 0.00 | 96 | 1014.5 |
| 20260905072844 | 24 | 262 | 1.6 | 1.6 | 0.00 | 0.00 | 0.00 | 96 | 1014.4 |
| 20260905072338 | 24 | 262 | 0.0 | 0.0 | 0.00 | 0.00 | 0.00 | 97 | 1014.2 |
| 20260905071835 | 24 | 262 | 0.0 | 0.0 | 0.00 | 0.00 | 0.00 | 97 | 1014.2 |
| 20260905071332 | 24 | 262 | 0.0 | 0.0 | 0.00 | 0.00 | 0.00 | 97 | 1014.4 |
| 20260905070831 | 24 | 262 | 0.0 | 0.0 | 0.00 | 0.00 | 0.00 | 96 | 1014.3 |
| 20260905070328 | 24 | 262 | 0.0 | 0.0 | 0.00 | 0.00 | 0.00 | 96 | 1014.2 |
| 20260905065826 | 25 | 262 | 0.0 | 0.0 | 0.00 | 0.00 | 0.00 | 96 | 1014.2 |
| 20260905065325 | 25 | 262 | 0.0 | 0.0 | 0.00 | 0.00 | 0.00 | 96 | 1014.3 |
| 20260905064820 | 25 | 262 | 0.0 | 0.0 | 0.00 | 0.00 | 0.00 | 96 | 1014.4 |
| 20260905064317 | 25 | 262 | 0.0 | 0.0 | 0.00 | 0.00 | 0.00 | 96 | 1014.2 |
| 20260905063815 | 25 | 262 | 1.6 | 1.6 | 0.00 | 0.00 | 0.00 | 96 | 1014.2 |
| 20260905063311 | 24 | 262 | 0.0 | 0.0 | 0.00 | 0.00 | 0.00 | 97 | 1014.3 |
| 20260905062807 | 24 | 262 | 0.0 | 0.0 | 0.00 | 0.00 | 0.00 | 97 | 1014.4 |
| 20260905062307 | 24 | 262 | 0.0 | 0.0 | 0.00 | 0.00 | 0.00 | 97 | 1014.2 |
| 20260905061801 | 24 | 262 | 0.0 | 0.0 | 0.00 | 0.00 | 0.00 | 97 | 1014.4 |
| 20260905061255 | 24 | 262 | 0.0 | 0.0 | 0.00 | 0.00 | 0.00 | 97 | 1014.3 |
| 20260905060750 | 24 | 262 | 0.0 | 0.0 | 0.00 | 0.00 | 0.00 | 96 | 1014.4 |
| 20260905060248 | 24 | 262 | 0.0 | 0.0 | 0.00 | 0.00 | 0.00 | 96 | 1014.2 |
| 20260905055746 | 25 | 262 | 0.0 | 0.0 | 0.00 | 0.00 | 0.00 | 96 | 1014.2 |
| 20260905055241 | 25 | 262 | 0.0 | 0.0 | 0.00 | 0.00 | 0.00 | 96 | 1014.2 |
| 20260905054736 | 25 | 262 | 0.0 | 0.0 | 0.00 | 0.00 | 0.00 | 95 | 1014.2 |
| 20260905054233 | 25 | 262 | 0.0 | 0.0 | 0.00 | 0.00 | 0.00 | 95 | 1014.1 |
| 20260905053731 | 25 | 262 | 0.0 | 0.0 | 0.00 | 0.00 | 0.00 | 94 | 1014.1 |
| 20260905053227 | 25 | 262 | 0.0 | 0.0 | 0.00 | 0.00 | 0.00 | 94 | 1014.2 |
| 20260905052726 | 25 | 262 | 0.0 | 0.0 | 0.00 | 0.00 | 0.00 | 93 | 1014.1 |
| 20260905052222 | 25 | 262 | 1.6 | 1.6 | 0.00 | 0.00 | 0.00 | 93 | 1014.1 |
| 20260905051721 | 25 | 262 | 1.6 | 1.6 | 0.00 | 0.00 | 0.00 | 94 | 1014.0 |
| 20260905051218 | 25 | 262 | 0.0 | 0.0 | 0.00 | 0.00 | 0.00 | 94 | 1014.1 |
| 20260905050714 | 25 | 262 | 0.0 | 0.0 | 0.00 | 0.00 | 0.00 | 94 | 1014.2 |
| 20260905050211 | 25 | 262 | 0.0 | 0.0 | 0.00 | 0.00 | 0.00 | 94 | 1014.0 |
| 20260905045710 | 25 | 262 | 0.0 | 0.0 | 0.00 | 0.08 | 0.08 | 94 | 1014.1 |
| 20260905045206 | 25 | 262 | 0.0 | 0.0 | 0.00 | 0.08 | 0.08 | 94 | 1013.9 |
| 20260905044700 | 25 | 262 | 0.0 | 0.0 | 0.00 | 0.08 | 0.08 | 93 | 1013.7 |
| 20260905044155 | 26 | 262 | 0.0 | 0.0 | 0.00 | 0.08 | 0.08 | 93 | 1014.0 |
| 20260905043654 | 26 | 262 | 0.0 | 0.0 | 0.00 | 0.08 | 0.08 | 92 | 1013.9 |
| 20260905043149 | 26 | 262 | 0.0 | 0.0 | 0.00 | 0.08 | 0.08 | 91 | 1013.7 |
| 20260905042649 | 26 | 257 | 1.6 | 3.2 | 0.00 | 0.08 | 0.08 | 91 | 1013.9 |
| 20260905042148 | 26 | 263 | 0.0 | 0.0 | 0.00 | 0.08 | 0.08 | 91 | 1013.6 |
| 20260905041644 | 26 | 263 | 0.0 | 1.6 | 0.00 | 0.08 | 0.08 | 91 | 1013.5 |
| 20260905041139 | 26 | 263 | 1.6 | 1.6 | 0.00 | 0.08 | 0.08 | 91 | 1014.0 |
| 20260905040634 | 26 | 263 | 0.0 | 1.6 | 0.00 | 0.08 | 0.08 | 91 | 1013.9 |
| 20260905040127 | 26 | 263 | 1.6 | 1.6 | 0.00 | 0.08 | 0.08 | 91 | 1013.6 |
| 20260905035622 | 26 | 260 | 1.6 | 3.2 | 0.00 | 0.08 | 0.08 | 91 | 1013.7 |
| 20260905035119 | 26 | 244 | 1.6 | 3.2 | 0.00 | 0.08 | 0.08 | 91 | 1013.7 |
| 20260905034614 | 27 | 268 | 0.0 | 1.6 | 0.00 | 0.08 | 0.08 | 91 | 1013.9 |
| 20260905034108 | 27 | 257 | 1.6 | 3.2 | 0.00 | 0.08 | 0.08 | 91 | 1013.9 |
| 20260905033608 | 27 | 275 | 1.6 | 3.2 | 0.00 | 0.08 | 0.08 | 91 | 1013.7 |
| 20260905033104 | 27 | 267 | 1.6 | 1.6 | 0.00 | 0.08 | 0.08 | 90 | 1013.7 |
| 20260905032603 | 27 | 269 | 0.0 | 1.6 | 0.00 | 0.08 | 0.08 | 90 | 1013.6 |
| 20260905032058 | 27 | 277 | 0.0 | 1.6 | 0.00 | 0.08 | 0.08 | 90 | 1013.9 |
| 20260905031554 | 27 | 272 | 0.0 | 1.6 | 0.00 | 0.08 | 0.08 | 89 | 1013.7 |
| 20260905031054 | 27 | 253 | 1.6 | 3.2 | 0.00 | 0.08 | 0.08 | 89 | 1013.9 |
| 20260905030549 | 27 | 230 | 3.2 | 3.2 | 0.00 | 0.08 | 0.08 | 88 | 1013.7 |
| 20260905030043 | 27 | 212 | 3.2 | 3.2 | 0.00 | 0.08 | 0.08 | 88 | 1013.9 |
| 20260905025538 | 27 | 226 | 3.2 | 3.2 | 0.00 | 0.08 | 0.08 | 88 | 1013.7 |
| 20260905025035 | 27 | 276 | 0.0 | 1.6 | 0.00 | 0.08 | 0.08 | 88 | 1013.7 |
| 20260905024530 | 27 | 284 | 0.0 | 1.6 | 0.00 | 0.08 | 0.08 | 88 | 1013.5 |
| 20260905024026 | 27 | 274 | 1.6 | 3.2 | 0.00 | 0.08 | 0.08 | 88 | 1013.7 |
| 20260905023521 | 27 | 252 | 1.6 | 3.2 | 0.00 | 0.08 | 0.08 | 87 | 1013.7 |
| 20260905023021 | 27 | 267 | 1.6 | 3.2 | 0.00 | 0.08 | 0.08 | 87 | 1013.5 |
| 20260905022515 | 28 | 269 | 0.0 | 1.6 | 0.00 | 0.08 | 0.08 | 86 | 1013.7 |
| 20260905022010 | 28 | 269 | 0.0 | 1.6 | 0.00 | 0.08 | 0.08 | 85 | 1013.5 |
| 20260905021510 | 28 | 270 | 0.0 | 1.6 | 0.00 | 0.08 | 0.08 | 84 | 1013.6 |
| 20260905021005 | 28 | 269 | 0.0 | 1.6 | 0.00 | 0.08 | 0.08 | 84 | 1013.4 |
| 20260905020459 | 28 | 269 | 0.0 | 1.6 | 0.00 | 0.08 | 0.08 | 85 | 1013.6 |
| 20260905015954 | 28 | 271 | 1.6 | 1.6 | 0.00 | 0.08 | 0.08 | 85 | 1013.3 |
| 20260905015452 | 28 | 272 | 0.0 | 0.0 | 0.00 | 0.08 | 0.08 | 85 | 1013.5 |
| 20260905014952 | 28 | 272 | 0.0 | 0.0 | 0.00 | 0.08 | 0.08 | 85 | 1013.3 |
| 20260905014447 | 28 | 272 | 0.0 | 0.0 | 0.00 | 0.08 | 0.08 | 85 | 1013.2 |
| 20260905013942 | 28 | 272 | 0.0 | 0.0 | 0.00 | 0.08 | 0.08 | 85 | 1013.2 |
| 20260905013439 | 28 | 272 | 0.0 | 0.0 | 0.00 | 0.08 | 0.08 | 86 | 1013.0 |
| 20260905012933 | 28 | 272 | 0.0 | 0.0 | 0.00 | 0.08 | 0.08 | 85 | 1013.0 |
| 20260905012428 | 28 | 272 | 0.0 | 0.0 | 0.00 | 0.08 | 0.08 | 84 | 1012.9 |
| 20260905011925 | 28 | 272 | 0.0 | 0.0 | 0.00 | 0.08 | 0.08 | 84 | 1012.8 |
| 20260905011421 | 28 | 272 | 0.0 | 0.0 | 0.00 | 0.08 | 0.08 | 83 | 1012.8 |
| 20260905010916 | 28 | 272 | 0.0 | 0.0 | 0.00 | 0.08 | 0.08 | 83 | 1012.7 |
| 20260905010410 | 28 | 272 | 0.0 | 0.0 | 0.00 | 0.08 | 0.08 | 83 | 1012.7 |
| 20260905005901 | 28 | 272 | 0.0 | 0.0 | 0.00 | 0.08 | 0.08 | 83 | 1012.8 |
| 20260905005357 | 29 | 272 | 0.0 | 0.0 | 0.00 | 0.08 | 0.08 | 85 | 1012.6 |
| 20260905004851 | 29 | 272 | 0.0 | 0.0 | 0.00 | 0.08 | 0.08 | 85 | 1012.6 |
| 20260905004346 | 29 | 272 | 0.0 | 0.0 | 0.00 | 0.08 | 0.08 | 84 | 1012.8 |
| 20260905003841 | 30 | 272 | 0.0 | 0.0 | 0.00 | 0.08 | 0.08 | 84 | 1012.6 |
| 20260905003337 | 30 | 272 | 0.0 | 0.0 | 0.00 | 0.08 | 0.08 | 84 | 1012.6 |
| 20260905002833 | 30 | 272 | 0.0 | 0.0 | 0.00 | 0.08 | 0.08 | 84 | 1012.8 |
| 20260905002332 | 30 | 272 | 0.0 | 0.0 | 0.00 | 0.08 | 0.08 | 84 | 1012.9 |
| 20260905001827 | 30 | 272 | 0.0 | 0.0 | 0.00 | 0.08 | 0.08 | 83 | 1012.7 |
| 20260905001326 | 30 | 275 | 1.6 | 1.6 | 0.00 | 0.08 | 0.08 | 83 | 1012.6 |
| 20260905000822 | 31 | 277 | 0.0 | 0.0 | 0.00 | 0.08 | 0.08 | 83 | 1012.8 |
| 20260905000318 | 31 | 277 | 0.0 | 0.0 | 0.00 | 0.08 | 0.08 | 82 | 1012.8 |
| 20260904235812 | 31 | 277 | 0.0 | 0.0 | 0.00 | 0.08 | 0.08 | 81 | 1012.7 |
| 20260904235308 | 31 | 277 | 0.0 | 0.0 | 0.00 | 0.08 | 0.08 | 81 | 1012.7 |
| 20260904234803 | 31 | 277 | 0.0 | 0.0 | 0.00 | 0.08 | 0.08 | 80 | 1012.7 |
| 20260904234258 | 32 | 277 | 0.0 | 0.0 | 0.00 | 0.08 | 0.08 | 79 | 1012.6 |
| 20260904233754 | 32 | 277 | 0.0 | 0.0 | 0.00 | 0.08 | 0.08 | 79 | 1012.6 |
| 20260904233250 | 32 | 240 | 3.2 | 3.2 | 0.00 | 0.08 | 0.08 | 78 | 1012.6 |
| 20260904232746 | 32 | 260 | 1.6 | 3.2 | 0.00 | 0.08 | 0.08 | 76 | 1012.7 |
| 20260904232242 | 32 | 270 | 1.6 | 3.2 | 0.00 | 0.08 | 0.08 | 76 | 1012.5 |
| 20260904231737 | 32 | 257 | 3.2 | 3.2 | 0.00 | 0.08 | 0.08 | 75 | 1012.5 |
| 20260904231233 | 32 | 274 | 1.6 | 1.6 | 0.00 | 0.08 | 0.08 | 73 | 1012.5 |
| 20260904230732 | 33 | 276 | 0.0 | 0.0 | 0.00 | 0.08 | 0.08 | 78 | 1012.5 |
| 20260904230226 | 32 | 276 | 0.0 | 1.6 | 0.00 | 0.08 | 0.08 | 77 | 1012.5 |
| 20260904225726 | 32 | 272 | 0.0 | 3.2 | 0.00 | 0.08 | 0.08 | 72 | 1012.5 |
| 20260904225220 | 32 | 282 | 1.6 | 1.6 | 0.00 | 0.08 | 0.08 | 77 | 1012.4 |
| 20260904224719 | 32 | 247 | 1.6 | 3.2 | 0.00 | 0.08 | 0.08 | 76 | 1012.4 |
| 20260904224214 | 32 | 276 | 1.6 | 1.6 | 0.00 | 0.08 | 0.08 | 80 | 1012.5 |
| 20260904223713 | 32 | 270 | 3.2 | 3.2 | 0.00 | 0.08 | 0.08 | 79 | 1012.4 |
| 20260904223209 | 31 | 269 | 1.6 | 1.6 | 0.00 | 0.08 | 0.08 | 80 | 1012.5 |
| 20260904222704 | 30 | 303 | 0.0 | 0.0 | 0.00 | 0.08 | 0.08 | 88 | 1012.2 |
| 20260904222200 | 30 | 303 | 0.0 | 0.0 | 0.00 | 0.08 | 0.08 | 91 | 1012.3 |
| 20260904221659 | 30 | 303 | 0.0 | 0.0 | 0.00 | 0.08 | 0.08 | 90 | 1012.4 |
| 20260904221154 | 30 | 303 | 0.0 | 0.0 | 0.30 | 0.08 | 0.08 | 85 | 1012.4 |
| 20260904220649 | 31 | 303 | 0.0 | 1.6 | 0.43 | 0.08 | 0.08 | 84 | 1012.4 |
| 20260904220144 | 31 | 280 | 0.0 | 1.6 | 0.13 | 0.03 | 0.03 | 79 | 1012.3 |
| 20260904215638 | 31 | 260 | 1.6 | 3.2 | 0.00 | 0.00 | 0.00 | 73 | 1012.3 |
| 20260904215135 | 32 | 221 | 4.8 | 8.0 | 0.00 | 0.00 | 0.00 | 73 | 1012.4 |
| 20260904214635 | 32 | 225 | 4.8 | 8.0 | 0.00 | 0.00 | 0.00 | 71 | 1012.1 |
| 20260904214130 | 32 | 236 | 4.8 | 8.0 | 0.00 | 0.00 | 0.00 | 71 | 1012.4 |
| 20260904213628 | 32 | 236 | 4.8 | 4.8 | 0.00 | 0.00 | 0.00 | 72 | 1012.5 |
| 20260904213125 | 32 | 254 | 4.8 | 8.0 | 0.00 | 0.00 | 0.00 | 71 | 1012.2 |
| 20260904212620 | 31 | 244 | 1.6 | 4.8 | 0.00 | 0.00 | 0.00 | 76 | 1012.3 |
| 20260904212115 | 31 | 241 | 3.2 | 3.2 | 0.00 | 0.00 | 0.00 | 77 | 1012.5 |
| 20260904211614 | 32 | 248 | 1.6 | 3.2 | 0.00 | 0.00 | 0.00 | 76 | 1012.5 |
| 20260904211110 | 32 | 263 | 1.6 | 3.2 | 0.00 | 0.00 | 0.00 | 75 | 1012.4 |
| 20260904210609 | 32 | 277 | 1.6 | 3.2 | 0.00 | 0.00 | 0.00 | 72 | 1012.6 |
| 20260904210100 | 33 | 229 | 6.4 | 9.7 | 0.00 | 0.00 | 0.00 | 61 | 1012.4 |
| 20260904205555 | 33 | 234 | 4.8 | 12.9 | 0.00 | 0.00 | 0.00 | 60 | 1012.4 |
| 20260904205051 | 34 | 244 | 6.4 | 12.9 | 0.00 | 0.00 | 0.00 | 58 | 1012.6 |
| 20260904204547 | 35 | 216 | 6.4 | 14.5 | 0.00 | 0.00 | 0.00 | 58 | 1012.6 |
| 20260904204043 | 35 | 205 | 4.8 | 11.3 | 0.00 | 0.00 | 0.00 | 56 | 1012.5 |
| 20260904203538 | 35 | 196 | 8.0 | 14.5 | 0.00 | 0.00 | 0.00 | 56 | 1012.4 |
| 20260904203035 | 35 | 213 | 8.0 | 11.3 | 0.00 | 0.00 | 0.00 | 55 | 1012.5 |
| 20260904202530 | 35 | 182 | 8.0 | 14.5 | 0.00 | 0.00 | 0.00 | 56 | 1012.5 |
| 20260904202026 | 35 | 234 | 11.3 | 16.1 | 0.00 | 0.00 | 0.00 | 56 | 1012.7 |
| 20260904201521 | 35 | 200 | 4.8 | 9.7 | 0.00 | 0.00 | 0.00 | 56 | 1012.7 |
| 20260904201016 | 35 | 251 | 4.8 | 8.0 | 0.00 | 0.00 | 0.00 | 55 | 1012.6 |
| 20260904200514 | 35 | 278 | 4.8 | 17.7 | 0.00 | 0.00 | 0.00 | 58 | 1012.7 |
| 20260904200010 | 35 | 208 | 8.0 | 14.5 | 0.00 | 0.00 | 0.00 | 57 | 1012.9 |
| 20260904195508 | 35 | 201 | 8.0 | 12.9 | 0.00 | 0.00 | 0.00 | 57 | 1012.8 |
| 20260904195008 | 35 | 237 | 8.0 | 11.3 | 0.00 | 0.00 | 0.00 | 56 | 1012.6 |
| 20260904194503 | 35 | 214 | 12.9 | 17.7 | 0.00 | 0.00 | 0.00 | 56 | 1012.5 |
| 20260904193957 | 35 | 188 | 8.0 | 14.5 | 0.00 | 0.00 | 0.00 | 58 | 1012.6 |
| 20260904193452 | 35 | 243 | 9.7 | 14.5 | 0.00 | 0.00 | 0.00 | 56 | 1012.5 |
| 20260904192948 | 35 | 174 | 9.7 | 17.7 | 0.00 | 0.00 | 0.00 | 57 | 1012.7 |
| 20260904192443 | 34 | 202 | 8.0 | 17.7 | 0.00 | 0.00 | 0.00 | 59 | 1012.6 |
| 20260904191940 | 34 | 172 | 8.0 | 12.9 | 0.00 | 0.00 | 0.00 | 59 | 1012.7 |
| 20260904191436 | 35 | 203 | 14.5 | 17.7 | 0.00 | 0.00 | 0.00 | 57 | 1012.6 |
| 20260904190932 | 35 | 199 | 14.5 | 24.1 | 0.00 | 0.00 | 0.00 | 58 | 1012.7 |
| 20260904190426 | 35 | 217 | 12.9 | 14.5 | 0.00 | 0.00 | 0.00 | 59 | 1012.6 |
| 20260904185923 | 35 | 249 | 8.0 | 11.3 | 0.00 | 0.00 | 0.00 | 59 | 1012.8 |
| 20260904185418 | 34 | 168 | 4.8 | 16.1 | 0.00 | 0.00 | 0.00 | 60 | 1012.8 |
| 20260904184913 | 34 | 277 | 12.9 | 14.5 | 0.00 | 0.00 | 0.00 | 59 | 1012.8 |
| 20260904184408 | 33 | 191 | 12.9 | 16.1 | 0.00 | 0.00 | 0.00 | 60 | 1013.0 |
| 20260904183903 | 34 | 221 | 8.0 | 20.9 | 0.00 | 0.00 | 0.00 | 61 | 1013.0 |
| 20260904183358 | 33 | 233 | 4.8 | 12.9 | 0.00 | 0.00 | 0.00 | 62 | 1013.1 |
| 20260904182854 | 34 | 146 | 8.0 | 12.9 | 0.00 | 0.00 | 0.00 | 61 | 1013.1 |
| 20260904182348 | 33 | 244 | 8.0 | 14.5 | 0.00 | 0.00 | 0.00 | 62 | 1013.0 |
| 20260904181843 | 33 | 175 | 11.3 | 12.9 | 0.00 | 0.00 | 0.00 | 61 | 1013.1 |
| 20260904181338 | 34 | 199 | 8.0 | 12.9 | 0.00 | 0.00 | 0.00 | 60 | 1013.0 |
| 20260904180834 | 33 | 286 | 6.4 | 14.5 | 0.00 | 0.00 | 0.00 | 61 | 1013.3 |
| 20260904180329 | 33 | 214 | 16.1 | 17.7 | 0.00 | 0.00 | 0.00 | 62 | 1013.3 |
| 20260904175828 | 33 | 274 | 8.0 | 14.5 | 0.00 | 0.00 | 0.00 | 60 | 1013.1 |
| 20260904175327 | 33 | 193 | 11.3 | 14.5 | 0.00 | 0.00 | 0.00 | 62 | 1013.3 |
| 20260904174827 | 33 | 184 | 11.3 | 14.5 | 0.00 | 0.00 | 0.00 | 64 | 1013.3 |
| 20260904174323 | 33 | 211 | 6.4 | 14.5 | 0.00 | 0.00 | 0.00 | 63 | 1013.1 |
| 20260904173819 | 33 | 218 | 11.3 | 14.5 | 0.00 | 0.00 | 0.00 | 62 | 1013.2 |
| 20260904173314 | 33 | 197 | 9.7 | 14.5 | 0.00 | 0.00 | 0.00 | 64 | 1013.3 |
| 20260904172810 | 33 | 301 | 8.0 | 12.9 | 0.00 | 0.00 | 0.00 | 63 | 1013.3 |
| 20260904172309 | 32 | 214 | 11.3 | 14.5 | 0.00 | 0.00 | 0.00 | 62 | 1013.4 |
| 20260904171804 | 32 | 206 | 8.0 | 16.1 | 0.00 | 0.00 | 0.00 | 63 | 1013.6 |
| 20260904171259 | 32 | 235 | 6.4 | 14.5 | 0.00 | 0.00 | 0.00 | 64 | 1013.5 |
| 20260904170755 | 32 | 215 | 11.3 | 16.1 | 0.00 | 0.00 | 0.00 | 63 | 1013.6 |
| 20260904170251 | 32 | 205 | 11.3 | 14.5 | 0.00 | 0.00 | 0.00 | 63 | 1013.5 |
| 20260904165750 | 32 | 186 | 9.7 | 14.5 | 0.00 | 0.00 | 0.00 | 64 | 1013.5 |
| 20260904165244 | 32 | 215 | 12.9 | 17.7 | 0.00 | 0.00 | 0.00 | 64 | 1013.6 |
| 20260904164738 | 32 | 228 | 11.3 | 14.5 | 0.00 | 0.00 | 0.00 | 64 | 1013.7 |
| 20260904164234 | 32 | 221 | 11.3 | 17.7 | 0.00 | 0.00 | 0.00 | 65 | 1013.7 |
| 20260904163730 | 31 | 219 | 8.0 | 14.5 | 0.00 | 0.00 | 0.00 | 67 | 1013.6 |
| 20260904163225 | 32 | 219 | 6.4 | 12.9 | 0.00 | 0.00 | 0.00 | 66 | 1013.5 |
| 20260904162724 | 32 | 224 | 4.8 | 12.9 | 0.00 | 0.00 | 0.00 | 67 | 1013.7 |
| 20260904162219 | 31 | 180 | 4.8 | 14.5 | 0.00 | 0.00 | 0.00 | 67 | 1013.7 |
| 20260904161715 | 31 | 218 | 6.4 | 12.9 | 0.00 | 0.00 | 0.00 | 66 | 1013.6 |
| 20260904161209 | 31 | 231 | 4.8 | 16.1 | 0.00 | 0.00 | 0.00 | 67 | 1013.7 |
| 20260904160705 | 31 | 226 | 8.0 | 12.9 | 0.00 | 0.00 | 0.00 | 69 | 1013.4 |
| 20260904160201 | 31 | 218 | 11.3 | 14.5 | 0.00 | 0.00 | 0.00 | 69 | 1013.6 |
| 20260904155655 | 31 | 193 | 8.0 | 11.3 | 0.00 | 0.00 | 0.00 | 70 | 1013.4 |
| 20260904155155 | 31 | 167 | 11.3 | 17.7 | 0.00 | 0.00 | 0.00 | 69 | 1013.5 |
| 20260904154653 | 31 | 225 | 6.4 | 12.9 | 0.00 | 0.00 | 0.00 | 71 | 1013.5 |
| 20260904154153 | 31 | 196 | 9.7 | 16.1 | 0.00 | 0.00 | 0.00 | 69 | 1013.4 |
| 20260904153648 | 31 | 207 | 8.0 | 16.1 | 0.00 | 0.00 | 0.00 | 69 | 1013.4 |
| 20260904153144 | 31 | 172 | 11.3 | 12.9 | 0.00 | 0.00 | 0.00 | 70 | 1013.3 |
| 20260904152640 | 30 | 208 | 6.4 | 11.3 | 0.00 | 0.00 | 0.00 | 70 | 1013.4 |
| 20260904152136 | 30 | 203 | 9.7 | 11.3 | 0.00 | 0.00 | 0.00 | 71 | 1013.2 |
| 20260904151630 | 30 | 215 | 9.7 | 16.1 | 0.00 | 0.00 | 0.00 | 72 | 1013.3 |
| 20260904151129 | 30 | 209 | 4.8 | 9.7 | 0.00 | 0.00 | 0.00 | 72 | 1013.4 |
| 20260904150625 | 30 | 122 | 9.7 | 16.1 | 0.00 | 0.00 | 0.00 | 72 | 1013.4 |
| 20260904150120 | 30 | 226 | 9.7 | 12.9 | 0.00 | 0.00 | 0.00 | 73 | 1013.4 |
| 20260904145618 | 29 | 172 | 11.3 | 17.7 | 0.00 | 0.00 | 0.00 | 75 | 1013.4 |